SL-12 DEB, 48541

Orbit data source: Space-Track

SL-12 DEB, 48541 is space debris in HEO originally from a launch on Mon, 01 Mar 2010 UTC launched from the Tyuratam Missile And Space Complex (TTMTR). Debris objects in space refer to the collection of defunct objects orbiting the Earth. Examples of debris include non-operational satellites, rocket bodies, and fragments generated from explosions, collisions, or faulty payload assembly.

Loading next visibility...
Identifier
48541, 2010-007AT
Orbit
HEO
Country
Flag of CISCIS
Related business
Manufacturer
RKKE
Mission
Spacecraft
Bus & Motor
Unknown
Mass
Unknown
Launch date (UTC)
2010-03-01 (16 years ago)
Launch vehicle
Unknown
Launch site
Tyuratam Missile And Space Complex (TTMTR)
Object type
Payload
Rocket body
Debris
Shape & HBR
Unknown shape, 0.1 m
Radar Cross Section
Small (<0.1 m²)

Expand to show TLE details & history
Last TLE update: 10 hours ago

TLE from 10 hours ago
0 SL-12 DEB
1 48541U 10007AT  26034.05715495  .00007632  00000-0  19920-1 0  9991
2 48541  64.6072 313.1451 5621846 339.9683   4.7508  4.39097196168490
Epoch: 2026-02-03T01:22Z
TLE epoch observation values (Epoch: 2026-02-03T01:22:18.187Z)
Latitude
0.00023°
Longitude
159.31761°
Altitude
669.534 km
Speed
9.372 km/s
True Right ascension
20h 52m 32s
True Declination
0° 00' 01"
Sunlit
Object was in daylight at epoch
Visualization orbit readout
Latitude
Unknown
Longitude
Unknown
Altitude
Unknown
Speed
Unknown
Apparent Right ascension
Unknown
Apparent Declination
Unknown
Sunlit
N/A
Visualization observer readout
Local Sidereal Time
13:03:22
Azimuth
Unknown
Elevation
Unknown
Doppler factor
Unknown
Orbital elements
Apogee altitude
18,229.135 km
Perigee altitude
518.258 km
Semi-major axis
15,751.834 km
Eccentricity
0.56218
Inclination
64.6072°
RAAN
313.1451°
Arg. of periapsis
339.9683°
True anomaly
20.19222°
Mean anomaly
4.7508°
Eccentric anomaly
10.76986°
Mean motion
1.09786 °/min
Orbital period
327.91 mins
BSTAR
0.01992
Loading maneuver chart data...
Computing Atmospheric mass density...
Loading historical data...
Loading historical data...
Loading historical data...
Loading historical data...
Loading historical data...
Loading historical data...
Loading historical data...

Documentation

Showing up to 5 results
|